Lexington Weather

Lexington, Massachusetts, USA

44°F
11/27/2020 4:19am 
  • Lexington Conditions: Mist, Overcast
  • Temperature: 43.5°F / 6.4°CWarmer 2.9°F than last hour.
  • Dew Point: 42.8°FIncreased 2.9°Fsince last hour.
  • Relative Humidity: 97
  • Wind: Calm, 10-min avg: Calm, gust: None
  • Barometer: 29.97 in Steady
  • Visibility: ¾ mile
  • Rain Today: 0.00 in
  •   
Southeast Middlesex County - Special Weather Statement
 - SEE ALL NEARBY ALERTS -

Regional Weather Roundup
for Boston / Norton, MA

        
000
ASUS41 KBOX 231104
RWRBOX

REGIONAL WEATHER ROUNDUP
NATIONAL WEATHER SERVICE BOSTON/NORTON MA
600 AM EST MON NOV 23 2020

NOTE:  "FAIR" INDICATES FEW OR NO CLOUDS BELOW 12,000 FEET WITH NO 
SIGNIFICANT WEATHER AND/OR OBSTRUCTIONS TO VISIBILITY.

MAZALL-231200-
EASTERN MASSACHUSETTS
  
CITY           SKY/WX    TMP DP  RH WIND       PRES   REMARKS
BOSTON         HVY RAIN  50  50 100 SE7       29.92F FOG              
BEVERLY        RAIN      53  51  93 SE16      29.91F FOG              
LAWRENCE       CLOUDY    52  51  97 MISG      29.92F                  
BEDFORD        CLOUDY    51  51 100 SE6       29.90F                  
BLUE HILL        N/A     52  52 100 S16G24    29.90F                  
NORWOOD        LGT RAIN  52  50  93 E3        29.91F FOG              
MARSHFIELD     CLOUDY    57  57 100 S10G17    29.92F                  
PLYMOUTH       CLOUDY    59  56  89 S10G20    29.93F                  
TAUNTON        CLOUDY    59  57  93 SE10      29.91F                  
NEW BEDFORD    CLOUDY    59  57  93 SE13      29.92F                  
$$

MAZALL-231200-
CAPE COD AND THE ISLANDS
  
CITY           SKY/WX    TMP DP  RH WIND       PRES   REMARKS
FALMOUTH       CLOUDY    57  59 100 S16G23    29.96F                  
HYANNIS        CLOUDY    56  56 100 SE10G21   29.95F FOG              
CHATHAM        FOG       57  55  93 SE14G23   29.99F VSB 3/4          
PROVINCETOWN   CLOUDY    57  56  96 S17G24    29.95F                  
NANTUCKET      FOG       56  55  97 SE15      29.98F VSB 3/4          
MARTHAS VNYRD  CLOUDY    59  58  96 S14G22    29.95F                  
$$
 
MAZALL-231200-
CENTRAL AND WESTERN MASSACHUSETTS
  
CITY           SKY/WX    TMP DP  RH WIND       PRES   REMARKS
WORCESTER      LGT RAIN  46  45  96 SE5       29.89F VSB 1/4          
FITCHBURG      LGT RAIN  42  42 100 CALM      29.92F FOG              
ORANGE         LGT RAIN  47  46  97 CALM      29.89F FOG              
SPRINGFIELD    NOT AVBL                                               
WESTFIELD      LGT RAIN  42  42 100 N6        29.87F                  
NORTH ADAMS    LGT RAIN  46  43  89 VRB6      29.84F                  
PITTSFIELD     RAIN      45  44  97 CALM      29.83F FOG              
$$
 
RIZALL-231200-
RHODE ISLAND
  
CITY           SKY/WX    TMP DP  RH WIND       PRES   REMARKS
PROVIDENCE     LGT RAIN  58  58 100 S13       29.91F                  
NEWPORT        CLOUDY    58  58 100 S14G24    29.91F FOG              
BLOCK ISLAND   MOCLDY    59  57  93 S15G22    29.91F                  
SMITHFIELD     CLOUDY    54  54 100 VRB6      29.90F FOG              
WESTERLY       CLOUDY    59  57  93 S10       29.90F                  
$$
 
CTZALL-231200-
CONNECTICUT
  
CITY           SKY/WX    TMP DP  RH WIND       PRES   REMARKS
BRADLEY INTL   RAIN      44  43  96 N5        29.87F FOG              
HARTFORD       LGT RAIN  46  44  93 NE3       29.87F FOG              
BRIDGEPORT     NOT AVBL                                               
DANBURY        RAIN      58  56  93 SW9       29.86F FOG              
GROTON         CLOUDY    59  57  93 S15       29.88F                  
NEW HAVEN      LGT RAIN  59  58  96 S9        29.87F FOG              
CHESTER        NOT AVBL                                               
MERIDEN        LGT RAIN  49  48  97 CALM      29.86F FOG              
WILLIMANTIC    LGT RAIN  50  49  96 CALM      29.88F FOG              
OXFORD         LGT RAIN  57  57 100 S5        29.87F VSB 1/2          
$$

MEZ002-015-021-024-NHZ003-005-008-011-012-014-VTZ005-008-231200-
NORTHERN NEW ENGLAND
  
CITY           SKY/WX    TMP DP  RH WIND       PRES   REMARKS
PORTLAND ME    HVY RAIN  47  47 100 E5        29.97F FOG              
BANGOR ME      DRIZZLE   43  40  89 SE12      30.06F                  
CONCORD NH     LGT RAIN  44  41  89 N3        29.92F                  
MANCHESTER NH  LGT RAIN  46  44  93 CALM      29.90F VSB 1            
NASHUA NH      CLOUDY    44  44 100 NW5       29.91F                  
PORTSMOUTH NH  LGT RAIN  51  50  99 SE15      29.90F                  
JAFFREY NH     CLOUDY    48  44  86 SE7       29.88F                  
KEENE NH       LGT RAIN  46  46 100 CALM      29.88F                  
BURLINGTON VT  LGT RAIN  44  41  89 S7        29.83F                  
MT. WASHINGTON FRZ RAIN  32  32 100 S59G70      N/A  VSB 1/16WCI  13  
$$

NYZ052-076-231200-
EASTERN NEW YORK
  
CITY           SKY/WX    TMP DP  RH WIND       PRES   REMARKS
ALBANY         LGT RAIN  42  42 100 E3        29.84F FOG              
NEW YORK CITY  HVY RAIN  61  57  87 S7        29.85F FOG              
$$
 
ANZALL-231200-
MARINE OBSERVATIONS
  
STATION/POSITION TIME  TEMP    WIND        PRES    VSBY  WAVE
                       AIR SEA DIR/SP/G                  HT/PER
                 (UTC) (F)     (DEG/KT/KT) (MB)    (MI)  (FT/S)
BOSTON BUOY      1040   53 50  150/ 16/ 21 1013.9F
BUZZARDS BAY     1000          160/ 20/ 22 1015.3F
NANTUCKET SOUND  1040      52  150/ 17/ 19   N/A
MASS BAY-STELLWA NOT AVBL
ISLE OF SHOALS   1000   51     130/ 27/ 29 1013.8F
S OF BLOCK IS    1026      58                N/A           6/ 8
$$

......................KEY.........................
  SKY/WX - SKY CONDITION/PRESENT WEATHER
  TMP    - TEMPERATURE IN FAHRENHEIT
  DWPT   - DEWPOINT IN FAHRENHEIT
  RH     - RELATIVE HUMIDITY IN PERCENT
  WIND   - DIRECTION AND SPEED IN MPH
  PRES   - MEAN SEA LEVEL PRESSURE IN INCHES OF HG
  WCI    - WIND CHILL INDEX
  VSB    - VISIBILITY IN MILES
  HX     - HEAT INDEX
  TC     - TEMPERATURE IN CELSIUS
  VRB    - VARIABLE WIND DIRECTION
  N/A    - NOT AVAILABLE
  
      

Other recent Regional Weather Roundups

Fri Nov 27, 1:04am

Fri Nov 27, 12:04am

Thu Nov 26, 11:04pm

Thu Nov 26, 10:04pm

Thu Nov 26, 9:04pm

Thu Nov 26, 8:04pm

Thu Nov 26, 7:04pm

Thu Nov 26, 6:04pm

Thu Nov 26, 5:04pm

Thu Nov 26, 4:04pm

Thu Nov 26, 2:04pm

Thu Nov 26, 1:04pm

Thu Nov 26, 12:04pm

Thu Nov 26, 11:04am

Thu Nov 26, 10:04am

Thu Nov 26, 9:04am

Thu Nov 26, 8:04am

Thu Nov 26, 7:04am

Thu Nov 26, 6:04am

Thu Nov 26, 5:04am

Thu Nov 26, 4:04am

Thu Nov 26, 3:04am

Thu Nov 26, 2:04am

Thu Nov 26, 1:04am

Thu Nov 26, 12:04am

Wed Nov 25, 11:04pm

Wed Nov 25, 10:04pm

Wed Nov 25, 9:04pm

Wed Nov 25, 8:04pm

Wed Nov 25, 7:04pm

Wed Nov 25, 6:04pm

Wed Nov 25, 5:04pm

Wed Nov 25, 4:04pm

Wed Nov 25, 3:05pm

Wed Nov 25, 2:04pm

Wed Nov 25, 1:04pm

Wed Nov 25, 12:05pm

Wed Nov 25, 11:04am

Wed Nov 25, 10:04am

Wed Nov 25, 9:04am

Wed Nov 25, 8:04am

Wed Nov 25, 7:04am

Wed Nov 25, 6:04am

Wed Nov 25, 5:04am

Wed Nov 25, 4:04am

Wed Nov 25, 3:04am

Wed Nov 25, 2:04am

Wed Nov 25, 1:04am

Wed Nov 25, 12:04am

Tue Nov 24, 11:04pm

Tue Nov 24, 10:04pm

Tue Nov 24, 9:04pm

Tue Nov 24, 8:04pm

Tue Nov 24, 7:04pm

Tue Nov 24, 6:04pm

Tue Nov 24, 5:04pm

Tue Nov 24, 4:05pm

Tue Nov 24, 3:05pm

Tue Nov 24, 2:05pm

Tue Nov 24, 1:05pm

Tue Nov 24, 12:04pm

Tue Nov 24, 11:04am

Tue Nov 24, 10:04am

Tue Nov 24, 9:04am

Tue Nov 24, 8:04am

Tue Nov 24, 7:04am

Tue Nov 24, 6:04am

Tue Nov 24, 5:04am

Tue Nov 24, 4:05am

Tue Nov 24, 3:04am

Tue Nov 24, 2:04am

Tue Nov 24, 1:04am

Tue Nov 24, 12:05am

Mon Nov 23, 11:04pm

Mon Nov 23, 10:04pm

Mon Nov 23, 9:04pm

Mon Nov 23, 8:04pm

Mon Nov 23, 7:04pm

Mon Nov 23, 6:04pm

Mon Nov 23, 5:04pm

Mon Nov 23, 4:04pm

Mon Nov 23, 3:04pm

Mon Nov 23, 2:04pm

Mon Nov 23, 1:04pm

Mon Nov 23, 12:04pm

Mon Nov 23, 11:04am

Mon Nov 23, 10:04am

Mon Nov 23, 9:04am

Mon Nov 23, 8:05am

Mon Nov 23, 7:04am

Mon Nov 23, 5:04am

Mon Nov 23, 4:04am

Mon Nov 23, 3:04am

Mon Nov 23, 2:04am

Mon Nov 23, 1:04am

Mon Nov 23, 12:05am

Sun Nov 22, 11:04pm

Sun Nov 22, 10:04pm

Sun Nov 22, 9:04pm

Sun Nov 22, 8:05pm

Sun Nov 22, 7:04pm

Sun Nov 22, 6:04pm

Sun Nov 22, 5:04pm

Sun Nov 22, 4:04pm

Sun Nov 22, 3:04pm

Sun Nov 22, 2:04pm

Sun Nov 22, 1:05pm

Sun Nov 22, 12:04pm

Sun Nov 22, 11:04am

Sun Nov 22, 10:05am

Sun Nov 22, 9:04am

Sun Nov 22, 8:04am

Sun Nov 22, 7:04am

Sun Nov 22, 6:04am

Sun Nov 22, 5:04am

Sun Nov 22, 4:04am

Sun Nov 22, 3:04am

Sun Nov 22, 2:04am

Sun Nov 22, 1:04am

Sun Nov 22, 12:04am

Sat Nov 21, 11:04pm

Sat Nov 21, 10:04pm

Sat Nov 21, 9:04pm

Sat Nov 21, 8:05pm

Sat Nov 21, 7:04pm

Sat Nov 21, 6:04pm

Sat Nov 21, 5:04pm

Sat Nov 21, 4:05pm

Sat Nov 21, 3:04pm

Sat Nov 21, 2:04pm

Sat Nov 21, 1:05pm

Sat Nov 21, 12:04pm

Sat Nov 21, 11:04am

Sat Nov 21, 10:04am

Sat Nov 21, 9:04am

Sat Nov 21, 8:04am

Sat Nov 21, 7:04am

Sat Nov 21, 6:04am

Sat Nov 21, 5:04am

Sat Nov 21, 4:04am

Sat Nov 21, 3:04am

Sat Nov 21, 2:04am

Sat Nov 21, 1:04am

Sat Nov 21, 12:04am

Fri Nov 20, 11:04pm

Fri Nov 20, 10:04pm

Fri Nov 20, 9:04pm

Fri Nov 20, 8:04pm

Fri Nov 20, 7:04pm

Fri Nov 20, 6:04pm

Fri Nov 20, 5:04pm

Fri Nov 20, 4:05pm

Fri Nov 20, 3:05pm

Fri Nov 20, 2:04pm

Fri Nov 20, 1:04pm

Fri Nov 20, 12:04pm

Fri Nov 20, 11:04am

Fri Nov 20, 10:04am

Fri Nov 20, 9:04am

Fri Nov 20, 8:04am

Fri Nov 20, 7:04am

Fri Nov 20, 6:04am

Fri Nov 20, 5:04am

Fri Nov 20, 4:04am

Meta data:

ID: 147db5cc-6393-45c0-a20f-fb7ea5c40400
Link: https://api.weather.gov/products/147db5cc-6393-45c0-a20f-fb7ea5c40400